Weather History for Fort Eustis, VA

Change the Weather History Date:

Friday, September 20, 2013

  Actual Average Record
Temperature  
Mean Temperature 68 °F -  
Max Temperature 79 °F 76 °F 89 °F (2005)
Min Temperature 59 °F 61 °F 55 °F (2004)
Cooling Degree Days 4    
Growing Degree Days 18 (Base 50)    
Moisture  
Dew Point 58 °F    
Average Humidity 70    
Maximum Humidity 91    
Minimum Humidity 50    
Precipitation  
Precipitation 0.00 in - - ()
Sea Level Pressure  
Sea Level Pressure 30.06 in    
Wind  
Wind Speed 3 mph (SE)    
Max Wind Speed 9 mph    
Max Gust Speed -    
Visibility 10 miles    
Events      
Averages and records for this station are not official NWS values.
T = Trace of Precipitation, MM = Missing Value Source: NWS Daily Summary

Daily Weather History Graph

Daily Weather History Graph

Search for Another Location

Airport:

Trip Planner

Search our weather history database for the weather conditions in past years. The results will help you decide how hot, cold, wet, or windy it might be!

Date:

Astronomy

Sep. 20, 2013 Rise Set
Actual Time 6:52 AM EDT 7:06 PM EDT
Civil Twilight 6:26 AM EDT 7:32 PM EDT
Nautical Twilight 5:56 AM EDT 8:02 PM EDT
Astronomical Twilight 5:25 AM EDT 8:33 PM EDT
Moon 7:41 PM EDT (9/20) 8:02 AM EDT (9/20)
Length of Visible Light 13h 05m
Length of Day
12h 13m
Full, 98% of the Moon is Illuminated
Sep 20
Full
Sep 26
Last Quarter
Oct 4
New
Oct 11
First Quarter
Oct 18
Full

Hourly Weather History & Observations

Time (EDT) Temp. Dew Point Humidity Pressure Visibility Wind Dir Wind Speed Gust Speed Precip Events Conditions
12:58 AM 64.2 °F 57.6 °F 79% 30.10 in 10.0 mi SE 2.3 mph - N/A   Overcast
1:48 AM 66.2 °F 57.2 °F 73% 30.10 in 10.0 mi South 4.6 mph - N/A   Light Drizzle
1:58 AM 66.0 °F 57.0 °F 73% 30.11 in 10.0 mi South 3.5 mph - 0.00 in   Light Drizzle
2:01 AM 66.2 °F 57.2 °F 73% 30.10 in 10.0 mi South 2.3 mph - N/A   Overcast
2:58 AM 64.4 °F 57.6 °F 78% 30.10 in 10.0 mi ESE 1.2 mph - 0.00 in   Mostly Cloudy
3:58 AM 61.3 °F 57.0 °F 86% 30.09 in 10.0 mi Calm Calm - N/A   Clear
4:58 AM 59.7 °F 57.0 °F 91% 30.09 in 10.0 mi Calm Calm - N/A   Overcast
5:58 AM 60.3 °F 57.0 °F 89% 30.10 in 10.0 mi ENE 1.2 mph - N/A   Clear
6:58 AM 59.2 °F 56.3 °F 90% 30.10 in 10.0 mi ENE 2.3 mph - N/A   Clear
7:58 AM 61.7 °F 58.5 °F 89% 30.10 in 10.0 mi Calm Calm - N/A   Clear
8:58 AM 67.3 °F 59.0 °F 75% 30.10 in 10.0 mi SSE 4.6 mph - N/A   Overcast
9:58 AM 70.0 °F 59.2 °F 68% 30.11 in 10.0 mi SSE 3.5 mph - N/A   Overcast
10:58 AM 73.0 °F 59.2 °F 62% 30.10 in 10.0 mi SSE 6.9 mph - N/A   Mostly Cloudy
11:58 AM 72.7 °F 57.9 °F 60% 30.09 in 10.0 mi Variable 4.6 mph - N/A   Mostly Cloudy
12:58 PM 75.7 °F 57.0 °F 52% 30.07 in 10.0 mi SSW 4.6 mph - N/A   Mostly Cloudy
1:58 PM 76.6 °F 56.8 °F 50% 30.06 in 9.0 mi South 5.8 mph - N/A   Clear
2:58 PM 78.1 °F 60.1 °F 54% 30.04 in 10.0 mi Variable 6.9 mph - N/A   Partly Cloudy
3:58 PM 78.6 °F 59.2 °F 51% 30.03 in 10.0 mi Calm Calm - N/A   Clear
4:58 PM 76.8 °F 59.5 °F 55% 30.02 in 10.0 mi East 9.2 mph - N/A   Partly Cloudy
5:58 PM 75.0 °F 59.2 °F 58% 30.00 in 10.0 mi East 8.1 mph - N/A   Clear
6:58 PM 72.0 °F 58.5 °F 62% 30.00 in 10.0 mi ESE 9.2 mph - N/A   Clear
7:58 PM 69.3 °F 57.6 °F 66% 30.00 in 10.0 mi ESE 6.9 mph - N/A   Clear
8:58 PM 66.0 °F 57.4 °F 74% 30.02 in 10.0 mi SE 4.6 mph - N/A   Clear
9:58 PM 66.2 °F 57.0 °F 72% 30.02 in 10.0 mi SE 3.5 mph - N/A   Clear
10:58 PM 65.8 °F 56.7 °F 72% 30.01 in 10.0 mi ESE 4.6 mph - N/A   Scattered Clouds
11:58 PM 64.6 °F 57.9 °F 79% 30.01 in 10.0 mi South 1.2 mph - N/A   Mostly Cloudy